SWAS

Last updated on Thu Jul 03 2025 00:03:31 GMT+0000 (Coordinated Universal Time)

1 25560U 98071A 25183.57494035 .00002886 00000+0 20323-3 0 9995 2 25560 69.8973 46.8130 0003271 70.7169 289.4347 15.06223260444564
UTC large
Height (km)
Speed (km/s)
/
Latitude / Longitude
Inclination (degrees)
Orbital Period (minutes)
Azimuth
Elevation
Range (km)
Doppler Factor

Next 0 passes for location: London (51.5072 / 0.1276)

Sorry there are no passes over London.